Showing default

SNUGLITE, 43784

Orbit data source: Space-Track

SNUGLITE, 43784 is a payload satellite owned by SNU (KR) in SSO that was launched on Mon, 03 Dec 2018 UTC via an FALCON 9 launch vehicle from the Air Force Western Test Range (AFWTR). Payload-class satellites include a variety of spacecraft equipped with specific instruments for various scientific and technological missions. These include communications satellites like Starlink; space stations such as the ISS; scientific satellites like the Hubble; Earth observation satellites from companies like Planet Labs, Umbra, and HawkEye 360; GPS; miniature CubeSats for education and research; and military/defense satellites.

Loading next visibility...
Identifier
43784, 2018-099AC
Orbit
SSO
Country
Flag of KRKR / SKOR
Related business
Manufacturer
SNU
Mission
Operational Amateur Technology
Bus & Motor
CUBESAT 2U, Unknown motor
Mass
2 kg wet, 2 kg dry
Launch date (UTC)
2018-12-03 (7 years ago)
Launch vehicle
FALCON 9
Launch site
Air Force Western Test Range (AFWTR)
Object type
Payload
Rocket body
Debris
Shape & HBR
Box + 1 Rod, 0.2 m
Radar Cross Section
0.025 m², Small (<0.1 m²)

Expand to show TLE details & history
Last TLE update: 10 hours ago

TLE from 10 hours ago
0 SNUGLITE
1 43784U 18099AC  26071.10098358  .00012909  00000-0  52115-3 0  9991
2 43784  97.4003 126.4343 0001419 262.3882  97.7195 15.24908542398514
Epoch: 2026-03-12T02:25Z
TLE epoch observation values (Epoch: 2026-03-12T02:25:24.981Z)
Latitude
0.00002°
Longitude
-79.6755°
Altitude
494.288 km
Speed
7.618 km/s
True Right ascension
08h 25m 44s
True Declination
0° 00' 00"
Sunlit
Object was in full shadow at epoch
Visualization orbit readout
Latitude
Unknown
Longitude
Unknown
Altitude
Unknown
Speed
Unknown
Apparent Right ascension
Unknown
Apparent Declination
Unknown
Sunlit
N/A
Visualization observer readout
Local Sidereal Time
16:24:45
Azimuth
Unknown
Elevation
Unknown
Doppler factor
Unknown
Orbital elements
Apogee altitude
488.993 km
Perigee altitude
487.045 km
Semi-major axis
6,866.156 km
Eccentricity
0.00014
Inclination
97.4003°
RAAN
126.4343°
Arg. of periapsis
262.3882°
True anomaly
97.73561°
Mean anomaly
97.7195°
Eccentric anomaly
97.72756°
Mean motion
3.81481 °/min
Orbital period
94.37 mins
BSTAR
0.00052115
Loading maneuver chart data...
Computing Atmospheric mass density...
Loading historical data...
Loading historical data...
Loading historical data...
Loading historical data...
Loading historical data...
Loading historical data...
Loading historical data...

Documentation

Showing up to 5 results
|